Regional Weather Roundup
Issued by NWS

Home | Current Version | Previous Version | Graphics & Text | Print | Product List | Glossary On
Versions: 1 2 3 4 5 6 7 8 9 10 11 12 13 14 15 16 17 18 19 20 21 22 23 24 25 26 27 28 29 30 31 32 33 34 35 36 37 38 39 40 41 42 43 44 45 46 47 48 49 50
000
ASUS45 KABQ 011410
RWRNM
NEW MEXICO REGIONAL WEATHER ROUNDUP
NATIONAL WEATHER SERVICE ALBUQUERQUE NM
800 AM MDT WED JUL 01 2015

NOTE: "FAIR" MEANS FEW OR NO CLOUDS BELOW 12,000 FEET AGL WITH NO
       SIGNIFICANT WEATHER OR OBSTRUCTIONS TO VISION.

      THIS PRODUCT IS RELEASED AS TWO VERSIONS.  ONE VERSION NEAR
      THE TOP OF THE HOUR CONTAINING PRELIMINARY DATA FROM ALBUQUERQUE
      AND OTHER STATIONS.  A FINAL VERSION WITH ADDITIONAL DATA IS
      ISSUED ABOUT 10 MINUTES AFTER THE HOUR.

NMZ501-503-504-510>518-011500-
NORTHWEST PLATEAU/NORTHCENTRAL MOUNTAINS

CITY           SKY/WX    TMP DP  RH WIND       PRES   REMARKS
FARMINGTON     SUNNY     75  50  41 E5        30.16R
LOS ALAMOS     PTSUNNY   66  47  49 SE7       30.30R
SANTA FE       PTSUNNY   66  45  46 SE9       30.24R
TAOS           CLOUDY    61  48  63 N5        30.32S
ANGEL FIRE     FAIR      58  51  79 W3        30.40R

$$
NMZ402-403-502-505>509-011500-
WESTCENTRAL MOUNTAINS/SOUTHWEST MOUNTAINS

CITY           SKY/WX    TMP DP  RH WIND       PRES   REMARKS
GALLUP         PTSUNNY   72  50  45 VRB6      30.25F
GRANTS         SUNNY     71  42  35 S7        30.29S
SILVER CITY      N/A     73  48  40 CALM      30.22S

$$
NMZ407-409-411-412-011500-
SOUTHERN DESERTS

CITY           SKY/WX    TMP DP  RH WIND       PRES   REMARKS
LORDSBURG      FAIR      70  55  60 NW8       30.13R
DEMING         PTSUNNY   76  52  43 E6        30.13R
LAS CRUCES     SUNNY     77  51  39 NE3       30.14S
HOLLOMAN AFB   SUNNY     78  48  35 W3        30.12R
ALAMOGORDO     SUNNY     77  50  38 W3        30.14R
T OR C         SUNNY     74  51  44 S3        30.16S

$$
NMZ519>523-011500-
CENTRAL VALLEYS/CENTRAL HIGHLANDS

CITY           SKY/WX    TMP DP  RH WIND       PRES   REMARKS
ALBUQUERQUE    MOSUNNY   76  49  38 S9        30.19F
DOUBLE EAGLE   MOSUNNY   73  50  43 S10       30.22F
MORIARTY ARPT  FAIR      66  45  46 S7        30.25F
CLINES CORNERS MOSUNNY   68  46  45 SW12      30.27F
BELEN          FAIR      75  47  37 S13       30.19F
SOCORRO        FAIR      73  50  45 SE8       30.19S

$$
NMZ524>526-539-540-011500-
SOUTHCENTRAL MOUNTAINS

CITY           SKY/WX    TMP DP  RH WIND       PRES   REMARKS
RUIDOSO        SUNNY     66  46  48 NW5       30.33S

$$
NMZ527>531-011500-
NORTHEAST HIGHLANDS/NORTHEAST PLAINS

CITY           SKY/WX    TMP DP  RH WIND       PRES   REMARKS
LAS VEGAS      PTSUNNY   67  51  56 SW7       30.24F
RATON          PTSUNNY   69  52  54 E6        30.19F
CLAYTON        MOSUNNY   74  53  48 W9        30.09S

$$
NMZ532>537-011500-
EASTCENTRAL PLAINS

CITY           SKY/WX    TMP DP  RH WIND       PRES   REMARKS
TUCUMCARI      SUNNY     78  55  44 SW15      30.06F
CANNON AFB     NOT AVBL
CLOVIS AIRPORT SUNNY     70  61  73 SW15        N/A

$$
NMZ028-029-538-011500-
SOUTHEAST PLAINS

CITY           SKY/WX    TMP DP  RH WIND       PRES   REMARKS
ROSWELL        SUNNY     74  59  59 S8        30.10S
ARTESIA        SUNNY     73  63  68 S10       30.11F
CARLSBAD       SUNNY     72  64  76 S9        30.09S
HOBBS          CLOUDY    66  66 100 S10       30.13S


$$



USA.gov is the U.S. government's official web portal to all federal, state and local government web resources and services.